Regional Weather Roundup
Issued by NWS Albany, NY

Home | Current Version | Previous Version | Graphics & Text | Print | Product List | Glossary On
Versions: 1 2 3 4 5 6 7 8 9 10 11 12 13 14 15 16 17 18 19 20 21 22 23 24 25 26 27
000
ASUS41 KALY 190910
RWRALY

NEW YORK STATE HOURLY WEATHER ROUNDUP
NATIONAL WEATHER SERVICE ALBANY NY
500 AM EDT SAT AUG 19 2017

NOTE: "FAIR" INDICATES FEW OR NO CLOUDS BELOW 12,000 FEET WITH NO
SIGNIFICANT WEATHER AND/OR NO OBSTRUCTIONS TO VISIBILITY.

NYZ032-033-038>043-046>054-057>066-NYZ062>081-082-084-191000-
EAST


CITY           SKY/WX    TMP DP  RH WIND       PRES   REMARKS
ALBANY         PTCLDY    65  63  93 CALM      29.79R
GLENS FALLS    CLEAR     65  64  97 SW3       29.77R
POUGHKEEPSIE   CLOUDY    71  69  93 CALM      29.78R FOG
MONTGOMERY     CLEAR     70  68  93 W6        29.80R
WHITE PLAINS   CLOUDY    72  70  93 W6        29.79R
ISLIP          CLOUDY    73  72  96 SW5       29.78S
NEW YORK CITY  MOCLDY    76  73  91 W9        29.79R
CENTRAL PARK   CLOUDY    74  72  93 SW6       29.82R
$$

NYZ005>009-017-018-044>046-055-056-191000-
CENTRAL


CITY           SKY/WX    TMP DP  RH WIND       PRES   REMARKS
FULTON         CLOUDY    68  64  87 S6        29.78R
SYRACUSE       CLOUDY    68  64  87 SW8       29.78S
ROME           MOCLDY    65  64  97 E3        29.80R
ELMIRA         CLEAR     59  59 100 CALM      29.83S
BINGHAMTON     CLEAR     63  60  90 SW6       29.85S
MONTICELLO     CLEAR     65  64  97 W5        29.86R
$$

NYZ026>034-041>043-087-191000-
NORTH


CITY           SKY/WX    TMP DP  RH WIND       PRES   REMARKS
WATERTOWN      CLOUDY    72  68  87 SW8G18    29.74S
FORT DRUM      NOT AVBL
OGDENSBURG     MOCLDY    69  67  90 SW8       29.72S
MASSENA        CLOUDY    70  67  90 S6        29.72R
SARANAC LAKE   MOCLDY    63  63 100 SW8       29.78S
PLATTSBURGH    CLEAR     68  64  87 CALM      29.73R
$$

NYZ001>004-010>016-019>021-085-191000-
WEST


CITY           SKY/WX    TMP DP  RH WIND       PRES   REMARKS
NIAGARA FALLS  MOCLDY    69  61  75 W10       29.80R
BUFFALO        MOCLDY    67  61  81 W12       29.81R
DUNKIRK        CLOUDY    70  63  78 W8        29.83S
JAMESTOWN      CLOUDY    62  61  96 SW6       29.88S
WELLSVILLE     PTCLDY    63  59  87 SW5       29.89S
ROCHESTER      PTCLDY    66  62  87 W7        29.79S
PENN YAN       MOCLDY    65  60  84 SW5       29.83R
$$

             KEY
       WCI = WIND CHILL INDEX
       VSB = VISIBILITY
       HX  = HEAT INDEX
$$




USA.gov is the U.S. government's official web portal to all federal, state and local government web resources and services.